EW6791 Weather Reports


Display with metric or nautical units.
time (UTC)temp
F
wind
direction
speed
MPH
gust
MPH
rain 1hr
in
rain 24hr
in
rain mn
in
humidity
%
barometer
mb
20260506111554 39 16 9.0 17.0 0.00 0.00 0.00 53 1010.0
20260506110059 39 16 13.0 18.0 0.00 0.00 0.00 55 1009.5
20260506104551 38 25 13.0 18.0 0.00 0.00 0.00 53 1009.3
20260506103047 38 23 15.0 19.0 0.00 0.00 0.00 54 1008.8
20260506101553 38 25 13.0 20.0 0.00 0.00 0.00 55 1008.7
20260506100042 38 8 15.0 21.0 0.00 0.00 0.00 56 1008.6
20260506094550 38 26 17.0 21.0 0.00 0.00 0.00 55 1008.5
20260506093046 39 10 16.0 21.0 0.00 0.00 0.00 56 1008.7
20260506091538 39 23 16.0 20.0 0.00 0.00 0.00 54 1008.7
20260506090038 39 20 17.0 21.0 0.00 0.00 0.00 54 1008.6
20260506084537 39 27 17.0 21.0 0.00 0.00 0.00 52 1008.5
20260506083038 39 19 17.0 23.0 0.00 0.00 0.00 55 1008.6
20260506081534 39 27 17.0 24.0 0.00 0.00 0.00 54 1008.3
20260506073031 39 33 16.0 23.0 0.00 0.00 0.00 55 1008.4
20260506071529 40 10 15.0 21.0 0.00 0.00 0.00 60 1008.6
20260506061521 41 24 19.0 24.0 0.00 0.00 0.00 54 1008.3
20260506044509 44 30 12.0 16.0 0.00 0.00 0.00 50 1008.1
20260506043005 44 32 12.0 15.0 0.00 0.00 0.00 51 1008.1
20260506041502 44 32 10.0 16.0 0.00 0.00 0.00 53 1007.8
20260506040058 44 35 12.0 17.0 0.00 0.00 0.00 52 1007.7
20260506034559 44 32 13.0 18.0 0.00 0.00 0.00 51 1007.6
20260506033110 44 33 10.0 14.0 0.00 0.00 0.00 49 1007.5
20260506031558 44 25 7.0 12.0 0.00 0.00 0.00 51 1007.2
20260506030053 43 57 3.0 8.0 0.00 0.00 0.00 49 1007.0
20260506024553 44 51 5.0 11.0 0.00 0.00 0.00 48 1007.0
20260506023051 44 66 6.0 14.0 0.00 0.00 0.00 47 1006.9
20260506021554 44 47 9.0 14.0 0.00 0.00 0.00 49 1006.9
20260506020048 44 37 11.0 20.0 0.00 0.00 0.00 54 1006.8
20260506014552 43 51 11.0 16.0 0.00 0.00 0.00 50 1006.4
20260506013044 43 39 11.0 17.0 0.00 0.00 0.00 56 1006.3
20260506011543 43 32 7.0 17.0 0.00 0.00 0.00 55 1006.0
20260506010040 43 55 6.0 11.0 0.00 0.00 0.00 54 1005.8
20260506004542 43 63 8.0 11.0 0.00 0.00 0.00 56 1005.5
20260506003034 43 41 5.0 13.0 0.00 0.00 0.00 56 1005.4
20260506001538 43 56 6.0 14.0 0.00 0.00 0.00 56 1005.2
20260506000036 43 48 8.0 13.0 0.00 0.00 0.00 57 1004.9
20260505234526 44 48 8.0 12.0 0.00 0.00 0.00 56 1004.7
20260505233023 45 57 9.0 16.0 0.00 0.00 0.00 55 1004.5
20260505231523 47 49 9.0 12.0 0.00 0.00 0.00 55 1004.5
20260505230022 49 56 7.0 11.0 0.00 0.00 0.00 54 1004.4
20260505224534 52 44 1.0 5.0 0.00 0.00 0.00 51 1004.5
20260505223030 51 36 10.0 16.0 0.00 0.00 0.00 54 1004.4
20260505221520 55 8 1.0 4.0 0.00 0.00 0.00 42 1004.4
20260505220033 53 30 4.0 9.0 0.00 0.00 0.00 43 1004.3
20260505214534 54 26 3.0 7.0 0.00 0.00 0.00 42 1004.1
20260505213028 60 285 0.0 10.0 0.00 0.00 0.00 24 1004.1
20260505211517 61 197 1.0 9.0 0.00 0.00 0.00 25 1004.1
20260505210016 61 179 1.0 9.0 0.00 0.00 0.00 27 1004.1
20260505204523 60 200 0.0 7.0 0.00 0.00 0.00 27 1004.2
20260505203013 60 205 1.0 6.0 0.00 0.00 0.00 29 1004.1
20260505201516 59 205 2.0 8.0 0.00 0.00 0.00 31 1004.2
20260505200011 60 171 0.0 4.0 0.00 0.00 0.00 31 1004.1
20260505194510 60 354 3.0 10.0 0.00 0.00 0.00 29 1004.1
20260505193032 60 226 2.0 12.0 0.00 0.00 0.00 33 1004.3
20260505191508 60 226 3.0 8.0 0.00 0.00 0.00 31 1004.3
20260505190016 60 325 2.0 11.0 0.00 0.00 0.00 33 1004.1
20260505184505 60 226 2.0 11.0 0.00 0.00 0.00 32 1004.0
20260505183007 60 316 0.0 8.0 0.00 0.00 0.00 36 1004.0
20260505181502 59 227 2.0 11.0 0.00 0.00 0.00 35 1004.1
20260505180058 57 133 0.0 7.0 0.00 0.00 0.00 37 1003.7
20260505174555 54 333 1.0 4.0 0.00 0.00 0.00 44 1003.7
20260505173053 53 203 1.0 7.0 0.00 0.00 0.00 44 1003.9
20260505171552 53 274 1.0 4.0 0.00 0.00 0.00 42 1004.0
20260505170059 54 51 1.0 7.0 0.00 0.00 0.00 41 1003.9
20260505164551 54 295 1.0 8.0 0.00 0.00 0.00 43 1003.9
20260505163052 53 210 0.0 4.0 0.00 0.00 0.00 43 1004.0
20260505161546 52 313 0.0 4.0 0.00 0.00 0.00 42 1004.2
20260505153044 51 271 0.0 3.0 0.00 0.00 0.00 43 1004.3
20260505151539 50 155 0.0 4.0 0.00 0.00 0.00 45 1004.3
20260505124524 47 327 1.0 5.0 0.00 0.00 0.00 50 1002.4
20260505123039 47 316 1.0 3.0 0.00 0.00 0.00 52 1002.3
20260505121526 47 345 1.0 5.0 0.00 0.00 0.00 51 1002.2
20260505120028 47 328 3.0 5.0 0.00 0.00 0.00 51 1001.9
20260505114520 46 319 2.0 3.0 0.00 0.00 0.00 54 1001.8
20260505113018 46 313 0.0 2.0 0.00 0.00 0.00 54 1001.5